N1IJV-10 Weather Reports


time (UTC)temp
C
wind
direction
speed
KPH
gust
KPH
rain 1hr
cm
rain 24hr
cm
rain mn
cm
humidity
%
barometer
mb
20260508233918 18 127 3.2 3.2 0.00 0.00 0.00 49 1005.4
20260508233417 18 118 4.8 11.3 0.00 0.00 0.00 50 1005.3
20260508232914 18 106 0.0 1.6 0.00 0.00 0.00 51 1005.2
20260508232410 18 105 1.6 1.6 0.00 0.00 0.00 49 1005.5
20260508231908 18 138 4.8 4.8 0.00 0.00 0.00 48 1005.1
20260508231405 19 109 3.2 8.0 0.00 0.00 0.00 49 1005.2
20260508230902 18 212 3.2 3.2 0.00 0.00 0.00 50 1005.4
20260508230359 18 176 4.8 8.0 0.00 0.00 0.00 50 1005.3
20260508225856 18 180 1.6 8.0 0.00 0.00 0.00 51 1005.3
20260508225352 19 121 0.0 4.8 0.00 0.00 0.00 49 1005.5
20260508224850 19 162 1.6 8.0 0.00 0.00 0.00 48 1005.3
20260508224347 19 264 4.8 8.0 0.00 0.00 0.00 48 1005.4
20260508223845 20 172 3.2 4.8 0.00 0.00 0.00 47 1005.6
20260508223342 20 231 4.8 4.8 0.00 0.00 0.00 47 1005.5
20260508222839 20 136 4.8 8.0 0.00 0.00 0.00 46 1005.5
20260508222337 20 294 8.0 9.7 0.00 0.00 0.00 46 1005.6
20260508221833 20 235 3.2 8.0 0.00 0.00 0.00 45 1005.3
20260508221328 21 127 3.2 4.8 0.00 0.00 0.00 45 1005.4
20260508220825 20 268 3.2 4.8 0.00 0.00 0.00 46 1005.5
20260508220322 20 61 1.6 4.8 0.00 0.00 0.00 48 1005.6
20260508215818 20 168 3.2 9.7 0.00 0.00 0.00 49 1005.7
20260508215315 20 169 3.2 9.7 0.00 0.00 0.00 48 1005.6
20260508214812 20 131 1.6 4.8 0.00 0.00 0.00 48 1005.6
20260508214309 20 192 4.8 8.0 0.00 0.00 0.00 48 1005.7
20260508213806 21 232 4.8 8.0 0.00 0.00 0.00 46 1005.8
20260508213303 21 193 3.2 4.8 0.00 0.00 0.00 44 1005.7
20260508212759 21 118 0.0 4.8 0.00 0.00 0.00 49 1005.7
20260508212255 21 106 1.6 4.8 0.00 0.00 0.00 46 1006.0
20260508211751 20 152 1.6 3.2 0.00 0.00 0.00 50 1005.8
20260508211246 20 298 4.8 9.7 0.00 0.00 0.00 48 1005.9
20260508210745 20 95 0.0 3.2 0.00 0.00 0.00 51 1005.8
20260508210241 20 129 1.6 3.2 0.00 0.00 0.00 49 1005.9
20260508205738 19 194 4.8 9.7 0.00 0.00 0.00 48 1005.8
20260508205234 20 273 6.4 9.7 0.00 0.00 0.00 48 1005.9
20260508204731 20 179 3.2 8.0 0.00 0.00 0.00 49 1005.9
20260508204227 20 147 3.2 3.2 0.00 0.00 0.00 45 1005.8
20260508203723 20 153 1.6 8.0 0.00 0.00 0.00 48 1006.0
20260508203220 20 310 4.8 8.0 0.00 0.00 0.00 44 1006.2
20260508202716 20 138 1.6 4.8 0.00 0.00 0.00 44 1006.4
20260508202213 20 271 3.2 4.8 0.00 0.00 0.00 45 1006.2
20260508201710 20 174 6.4 9.7 0.00 0.00 0.00 45 1006.4
20260508201207 18 189 3.2 8.0 0.00 0.00 0.00 47 1006.4
20260508200704 19 83 3.2 8.0 0.00 0.00 0.00 47 1006.2
20260508200159 20 171 4.8 4.8 0.00 0.00 0.00 43 1006.7
20260508195656 21 287 8.0 11.3 0.00 0.00 0.00 44 1006.6
20260508195153 19 57 3.2 8.0 0.00 0.00 0.00 47 1006.8
20260508194649 20 131 1.6 8.0 0.00 0.00 0.00 48 1006.9
20260508194146 20 104 0.0 0.0 0.00 0.00 0.00 49 1007.0
20260508193643 20 96 0.0 1.6 0.00 0.00 0.00 46 1007.1
20260508193140 20 192 1.6 8.0 0.00 0.00 0.00 48 1007.1
20260508192637 20 100 1.6 4.8 0.00 0.00 0.00 49 1006.9
20260508192134 18 195 1.6 4.8 0.00 0.00 0.00 53 1007.2
20260508191631 18 3 1.6 3.2 0.00 0.00 0.00 55 1007.5
20260508191127 19 163 1.6 8.0 0.00 0.00 0.00 50 1007.3
20260508190625 19 112 1.6 3.2 0.00 0.00 0.00 50 1007.1
20260508190121 19 93 0.0 3.2 0.00 0.00 0.00 53 1007.4
20260508185618 18 283 3.2 4.8 0.00 0.00 0.00 50 1007.4
20260508185115 18 257 4.8 4.8 0.00 0.00 0.00 53 1007.6
20260508184612 18 135 4.8 9.7 0.00 0.00 0.00 52 1007.5
20260508184110 18 106 1.6 3.2 0.00 0.00 0.00 51 1007.7
20260508183606 18 95 0.0 3.2 0.00 0.00 0.00 52 1007.7
20260508183102 18 245 3.2 3.2 0.00 0.00 0.00 55 1007.6
20260508182558 18 278 4.8 4.8 0.00 0.00 0.00 54 1008.0
20260508182055 18 109 0.0 4.8 0.00 0.00 0.00 56 1007.8
20260508181555 18 170 0.0 1.6 0.00 0.00 0.00 55 1008.1
20260508181054 18 108 1.6 3.2 0.00 0.00 0.00 54 1007.9
20260508180550 17 103 1.6 3.2 0.00 0.00 0.00 56 1007.9
20260508180046 17 159 0.0 1.6 0.00 0.00 0.00 59 1007.9
20260508175543 18 120 0.0 4.8 0.00 0.00 0.00 55 1008.2
20260508175041 18 177 1.6 4.8 0.00 0.00 0.00 57 1008.4
20260508174538 18 275 6.4 8.0 0.00 0.00 0.00 58 1008.3
20260508174035 18 168 1.6 4.8 0.00 0.00 0.00 55 1008.5
20260508173532 18 129 3.2 3.2 0.00 0.00 0.00 59 1008.5
20260508173027 19 207 1.6 4.8 0.00 0.00 0.00 57 1008.4
20260508172525 19 102 1.6 1.6 0.00 0.00 0.00 56 1008.8
20260508172021 18 134 1.6 1.6 0.00 0.00 0.00 57 1008.6
20260508171518 18 234 1.6 4.8 0.00 0.00 0.00 58 1008.8
20260508171014 19 118 1.6 3.2 0.00 0.00 0.00 57 1008.8
20260508170512 19 103 0.0 1.6 0.00 0.00 0.00 61 1009.0
20260508170009 18 135 1.6 3.2 0.00 0.00 0.00 61 1008.9
20260508165507 18 148 3.2 4.8 0.00 0.00 0.00 60 1008.9
20260508165004 18 99 1.6 3.2 0.00 0.00 0.00 60 1009.1
20260508164459 18 90 3.2 3.2 0.00 0.00 0.00 59 1009.3
20260508163956 17 157 1.6 3.2 0.00 0.00 0.00 60 1009.3
20260508163454 17 164 3.2 4.8 0.00 0.00 0.00 61 1009.3
20260508162949 17 131 1.6 3.2 0.00 0.00 0.00 61 1009.7
20260508162447 17 204 1.6 4.8 0.00 0.00 0.00 62 1009.7
20260508161944 17 97 1.6 3.2 0.00 0.00 0.00 62 1009.6
20260508161441 17 98 1.6 1.6 0.00 0.00 0.00 62 1009.5
20260508160938 17 180 1.6 4.8 0.00 0.00 0.00 61 1009.8
20260508160438 16 114 1.6 3.2 0.00 0.00 0.00 64 1009.8
20260508155933 17 142 4.8 8.0 0.00 0.00 0.00 64 1009.6
20260508155430 17 188 3.2 3.2 0.00 0.00 0.00 61 1009.6
20260508154927 17 83 0.0 1.6 0.00 0.00 0.00 61 1009.7
20260508154424 16 245 3.2 3.2 0.00 0.00 0.00 65 1009.8
20260508153921 17 114 0.0 1.6 0.00 0.00 0.00 63 1010.0
20260508153418 16 74 3.2 3.2 0.00 0.00 0.00 65 1010.0
20260508152914 16 111 1.6 3.2 0.00 0.00 0.00 65 1010.0
20260508152411 16 230 3.2 8.0 0.00 0.00 0.00 68 1010.0
20260508151908 16 129 1.6 4.8 0.00 0.00 0.00 67 1010.1
20260508151404 16 142 1.6 3.2 0.00 0.00 0.00 65 1010.0
20260508150901 15 260 3.2 4.8 0.00 0.00 0.00 68 1010.0
20260508150357 15 132 0.0 3.2 0.00 0.00 0.00 69 1010.0
20260508145854 15 108 1.6 4.8 0.00 0.00 0.00 68 1010.4
20260508145350 15 151 1.6 3.2 0.00 0.00 0.00 68 1010.1
20260508144847 14 155 1.6 1.6 0.00 0.00 0.00 69 1010.4
20260508144345 14 194 0.0 3.2 0.00 0.00 0.00 70 1010.3
20260508143842 15 189 4.8 4.8 0.00 0.00 0.00 66 1010.5
20260508143339 15 81 0.0 1.6 0.00 0.00 0.00 66 1010.4
20260508142836 15 108 0.0 1.6 0.00 0.00 0.00 66 1010.5
20260508142332 14 79 1.6 1.6 0.00 0.00 0.00 65 1010.4
20260508141829 13 101 0.0 1.6 0.00 0.00 0.00 69 1010.3
20260508141326 13 117 0.0 1.6 0.00 0.00 0.00 71 1010.4
20260508140823 13 95 3.2 3.2 0.00 0.00 0.00 69 1010.5
20260508140320 12 80 0.0 1.6 0.00 0.00 0.00 71 1010.5
20260508135816 12 63 1.6 3.2 0.00 0.00 0.00 71 1010.7
20260508135313 12 104 1.6 3.2 0.00 0.00 0.00 72 1010.4
20260508134808 11 87 0.0 3.2 0.00 0.00 0.00 77 1010.7
20260508134305 11 96 0.0 1.6 0.00 0.00 0.00 79 1010.3
20260508133802 11 186 1.6 4.8 0.00 0.00 0.00 80 1010.5
20260508133300 11 97 0.0 1.6 0.00 0.00 0.00 81 1010.5
20260508132757 10 142 0.0 1.6 0.00 0.00 0.00 83 1010.4
20260508132254 10 76 1.6 1.6 0.00 0.00 0.00 85 1010.5
20260508131750 10 94 1.6 1.6 0.00 0.00 0.00 86 1010.4
20260508131247 9 88 1.6 1.6 0.00 0.00 0.00 87 1010.4
20260508130743 9 85 0.0 1.6 0.00 0.00 0.00 88 1010.3
20260508130241 8 89 0.0 3.2 0.00 0.00 0.00 88 1010.3
20260508125736 8 92 1.6 1.6 0.00 0.00 0.00 90 1010.5
20260508125232 8 97 1.6 1.6 0.00 0.00 0.00 90 1010.3
20260508124731 8 102 1.6 4.8 0.00 0.00 0.00 90 1010.7
20260508124228 8 85 1.6 1.6 0.00 0.00 0.00 92 1010.3
20260508123726 7 87 1.6 1.6 0.00 0.00 0.00 93 1010.2
20260508123224 7 122 1.6 3.2 0.00 0.00 0.00 95 1010.3
20260508122719 7 86 0.0 1.6 0.00 0.00 0.00 96 1010.4
20260508122217 7 85 0.0 1.6 0.00 0.00 0.00 96 1010.5
20260508121714 6 98 0.0 1.6 0.00 0.00 0.00 97 1010.7
20260508121213 6 108 0.0 0.0 0.00 0.00 0.00 98 1010.7
20260508120709 6 80 0.0 1.6 0.00 0.00 0.00 98 1010.4
20260508120208 6 67 1.6 1.6 0.00 0.00 0.00 98 1010.4
20260508115705 6 61 0.0 4.8 0.00 0.00 0.00 99 1010.3
20260508115202 6 80 0.0 0.0 0.00 0.00 0.00 99 1010.4
20260508114659 6 88 0.0 0.0 0.00 0.00 0.00 99 1010.3
20260508114155 6 92 0.0 0.0 0.00 0.00 0.00 99 1010.3
20260508113652 6 89 0.0 0.0 0.00 0.00 0.00 99 1010.3
20260508113151 6 90 0.0 0.0 0.00 0.00 0.00 99 1010.5
20260508112646 6 91 0.0 0.0 0.00 0.00 0.00 99 1010.2
20260508112143 6 89 0.0 0.0 0.00 0.00 0.00 99 1010.2
20260508111640 5 93 0.0 0.0 0.00 0.00 0.00 99 1010.2
20260508111137 5 97 0.0 0.0 0.00 0.00 0.00 99 1010.3
20260508110635 5 90 0.0 0.0 0.00 0.00 0.00 99 1010.1
20260508110131 5 89 0.0 0.0 0.00 0.00 0.00 99 1010.0
20260508105626 5 91 0.0 0.0 0.00 0.00 0.00 99 1010.0
20260508105123 5 82 0.0 0.0 0.00 0.00 0.00 99 1009.9
20260508104621 5 86 0.0 0.0 0.00 0.00 0.00 99 1010.1
20260508104117 5 84 0.0 0.0 0.00 0.00 0.00 99 1009.9
20260508103614 5 92 0.0 0.0 0.00 0.00 0.00 99 1010.5
20260508103112 4 99 0.0 0.0 0.00 0.00 0.00 99 1010.2
20260508102609 4 100 0.0 0.0 0.00 0.00 0.00 99 1010.1
20260508102107 4 98 0.0 0.0 0.00 0.00 0.00 99 1010.4
20260508101604 4 118 0.0 0.0 0.00 0.00 0.00 99 1010.4
20260508101101 4 90 0.0 0.0 0.00 0.00 0.00 99 1010.3
20260508100559 4 86 0.0 0.0 0.00 0.00 0.00 99 1010.2
20260508100055 4 87 0.0 0.0 0.00 0.00 0.00 99 1010.1
20260508095553 3 83 0.0 0.0 0.00 0.00 0.00 99 1010.3
20260508095049 3 97 0.0 0.0 0.00 0.00 0.00 99 1010.3
20260508094547 3 97 0.0 0.0 0.00 0.00 0.00 99 1010.2
20260508094044 3 96 0.0 0.0 0.00 0.00 0.00 99 1010.4
20260508093541 3 100 0.0 0.0 0.00 0.00 0.00 99 1010.4
20260508093038 3 102 0.0 0.0 0.00 0.00 0.00 99 1010.4
20260508092535 3 102 0.0 0.0 0.00 0.00 0.00 98 1010.4
20260508092034 3 102 0.0 0.0 0.00 0.00 0.00 98 1010.4
20260508091531 4 116 0.0 0.0 0.00 0.00 0.00 98 1010.4
20260508091028 4 96 0.0 0.0 0.00 0.00 0.00 98 1010.3
20260508090526 4 85 0.0 0.0 0.00 0.00 0.00 98 1010.3
20260508090022 4 94 0.0 0.0 0.00 0.00 0.00 97 1010.5
20260508085519 4 95 0.0 0.0 0.00 0.00 0.00 97 1010.5
20260508085016 4 95 0.0 0.0 0.00 0.00 0.00 97 1010.7
20260508084513 4 101 0.0 0.0 0.00 0.00 0.00 97 1010.6
20260508084010 4 105 0.0 0.0 0.00 0.00 0.00 97 1010.6
20260508083507 4 103 0.0 0.0 0.00 0.00 0.00 97 1010.6
20260508083003 4 96 0.0 0.0 0.00 0.00 0.00 96 1010.7
20260508082459 5 90 0.0 0.0 0.00 0.00 0.00 96 1010.5
20260508081957 5 79 0.0 0.0 0.00 0.00 0.00 96 1010.5
20260508081454 5 116 0.0 0.0 0.00 0.00 0.00 96 1010.7
20260508080950 5 96 0.0 0.0 0.00 0.00 0.00 96 1010.7
20260508080449 5 81 0.0 0.0 0.00 0.00 0.00 96 1010.7
20260508075945 5 88 0.0 0.0 0.00 0.00 0.00 96 1010.8
20260508075442 5 94 0.0 0.0 0.00 0.00 0.00 96 1010.7
20260508074939 5 91 0.0 0.0 0.00 0.00 0.00 96 1010.5
20260508074437 5 95 0.0 0.0 0.00 0.00 0.00 96 1010.8
20260508073934 5 90 0.0 0.0 0.00 0.00 0.00 96 1010.8
20260508073431 5 90 0.0 0.0 0.00 0.00 0.00 96 1010.9
20260508072928 5 95 0.0 0.0 0.00 0.00 0.00 96 1010.9
20260508072424 5 96 0.0 0.0 0.00 0.00 0.00 96 1010.9
20260508071922 5 127 0.0 0.0 0.00 0.00 0.00 95 1011.0
20260508071420 5 91 0.0 0.0 0.00 0.00 0.00 95 1011.0
20260508070917 5 95 0.0 0.0 0.00 0.00 0.00 95 1011.1
20260508070415 5 100 0.0 0.0 0.00 0.00 0.00 95 1011.1
20260508065912 5 118 0.0 0.0 0.00 0.00 0.00 95 1010.9
20260508065410 5 100 0.0 0.0 0.00 0.00 0.00 94 1011.2
20260508064908 6 92 0.0 0.0 0.00 0.00 0.00 94 1011.1
20260508064405 6 91 0.0 0.0 0.00 0.00 0.00 93 1010.8
20260508063903 6 90 0.0 0.0 0.00 0.00 0.00 93 1011.2
20260508063401 6 88 0.0 0.0 0.00 0.00 0.00 93 1011.0
20260508062857 6 81 0.0 0.0 0.00 0.00 0.00 93 1010.8
20260508062355 6 94 0.0 0.0 0.00 0.00 0.00 92 1010.9
20260508061852 6 103 0.0 0.0 0.00 0.00 0.00 92 1010.9
20260508061349 6 97 0.0 0.0 0.00 0.00 0.00 91 1011.2
20260508060846 6 86 0.0 0.0 0.00 0.00 0.00 91 1010.9
20260508060344 6 93 0.0 0.0 0.00 0.00 0.00 90 1011.0
20260508055838 6 91 0.0 0.0 0.00 0.00 0.00 90 1011.1
20260508055336 7 90 0.0 0.0 0.00 0.00 0.00 89 1011.0
20260508054832 7 109 0.0 0.0 0.00 0.00 0.00 88 1010.7
20260508054330 7 98 0.0 0.0 0.00 0.00 0.00 88 1010.6
20260508053827 7 85 0.0 0.0 0.00 0.00 0.00 88 1010.9
20260508053324 7 90 0.0 0.0 0.00 0.00 0.00 88 1010.8
20260508052821 7 79 0.0 0.0 0.00 0.00 0.00 87 1010.6
20260508052319 7 103 0.0 0.0 0.00 0.00 0.00 87 1010.8
20260508051815 7 104 0.0 0.0 0.00 0.00 0.00 87 1010.6
20260508051310 7 110 0.0 0.0 0.00 0.00 0.00 87 1010.6
20260508050807 7 106 0.0 0.0 0.00 0.00 0.00 86 1010.7
20260508050304 7 100 0.0 0.0 0.00 0.00 0.00 86 1010.6
20260508045759 8 91 0.0 0.0 0.00 0.03 0.03 85 1010.5
20260508045257 8 92 0.0 0.0 0.00 0.03 0.03 84 1010.8
20260508044755 8 91 0.0 0.0 0.00 0.03 0.03 84 1010.6
20260508044251 8 91 0.0 0.0 0.00 0.03 0.03 83 1010.6
20260508043747 8 99 0.0 0.0 0.00 0.03 0.03 82 1010.6
20260508043245 8 104 0.0 0.0 0.00 0.03 0.03 81 1010.4
20260508042741 8 95 0.0 0.0 0.00 0.03 0.03 80 1010.5
20260508042239 8 92 0.0 0.0 0.00 0.03 0.03 80 1010.3
20260508041735 8 89 0.0 0.0 0.00 0.03 0.03 80 1010.4
20260508041232 8 96 0.0 0.0 0.00 0.03 0.03 79 1010.3
20260508040729 9 110 0.0 0.0 0.00 0.03 0.03 78 1010.4
20260508040226 9 107 0.0 1.6 0.00 0.03 0.03 77 1010.4
20260508035723 9 109 0.0 1.6 0.00 0.03 0.03 78 1010.5
20260508035221 8 107 0.0 0.0 0.00 0.03 0.03 78 1010.2
20260508034717 8 129 1.6 3.2 0.00 0.03 0.03 79 1010.0
20260508034215 8 101 0.0 0.0 0.00 0.03 0.03 81 1010.3
20260508033711 8 97 0.0 0.0 0.00 0.03 0.03 82 1010.2
20260508033210 8 99 0.0 0.0 0.00 0.03 0.03 81 1010.0
20260508032707 8 106 0.0 0.0 0.00 0.03 0.03 81 1009.9
20260508032204 8 103 0.0 0.0 0.00 0.03 0.03 78 1010.1
20260508031701 8 102 0.0 0.0 0.00 0.03 0.03 79 1009.9
20260508031157 8 93 0.0 0.0 0.00 0.03 0.03 80 1010.1
20260508030653 8 90 0.0 0.0 0.00 0.03 0.03 79 1010.0
20260508030151 9 81 0.0 1.6 0.00 0.03 0.03 77 1010.1
20260508025647 8 151 1.6 1.6 0.00 0.03 0.03 80 1010.0
20260508025144 8 103 0.0 0.0 0.00 0.03 0.03 81 1009.8
20260508024640 8 113 0.0 0.0 0.00 0.03 0.03 83 1010.0
20260508024138 8 105 0.0 0.0 0.00 0.03 0.03 82 1009.9
20260508023633 8 106 0.0 0.0 0.00 0.03 0.03 81 1009.8
20260508023132 8 108 0.0 0.0 0.00 0.03 0.03 81 1010.0
20260508022627 8 94 0.0 0.0 0.00 0.03 0.03 80 1010.0
20260508022124 9 94 0.0 0.0 0.00 0.03 0.03 79 1009.9
20260508021620 9 92 0.0 0.0 0.00 0.03 0.03 79 1009.8
20260508021116 9 92 0.0 0.0 0.00 0.03 0.03 79 1009.7
20260508020614 9 92 0.0 0.0 0.00 0.03 0.03 79 1009.6
20260508020111 9 95 0.0 0.0 0.00 0.03 0.03 78 1009.6
20260508015609 9 95 0.0 0.0 0.00 0.03 0.03 77 1009.5
20260508015105 9 95 0.0 0.0 0.00 0.03 0.03 77 1009.5
20260508014601 10 95 0.0 0.0 0.00 0.03 0.03 76 1009.3
20260508014058 10 96 0.0 0.0 0.00 0.03 0.03 75 1009.4
20260508013554 10 101 0.0 0.0 0.00 0.03 0.03 75 1009.2
20260508013051 10 95 0.0 0.0 0.00 0.03 0.03 75 1009.0
20260508012549 10 104 0.0 0.0 0.00 0.03 0.03 74 1009.2
20260508012046 10 104 0.0 0.0 0.00 0.03 0.03 72 1009.1
20260508011544 10 105 0.0 0.0 0.00 0.03 0.03 74 1009.1
20260508011041 10 113 0.0 0.0 0.00 0.03 0.03 74 1009.3
20260508010538 11 94 0.0 0.0 0.00 0.03 0.03 72 1009.1
20260508010035 11 94 0.0 0.0 0.00 0.03 0.03 71 1009.0
20260508005532 11 94 0.0 0.0 0.00 0.03 0.03 70 1009.1
20260508005029 11 94 0.0 0.0 0.00 0.03 0.03 68 1008.9
20260508004524 12 93 0.0 0.0 0.00 0.03 0.03 68 1008.8
20260508004021 12 92 0.0 0.0 0.00 0.03 0.03 67 1008.9
20260508003518 12 92 0.0 0.0 0.00 0.03 0.03 65 1008.9
20260508003016 13 92 0.0 0.0 0.00 0.03 0.03 65 1008.9
20260508002511 13 92 0.0 0.0 0.00 0.03 0.03 61 1009.0
20260508002009 13 92 0.0 0.0 0.00 0.03 0.03 63 1008.9
20260508001505 13 80 0.0 0.0 0.00 0.03 0.03 61 1008.9
20260508001001 13 80 0.0 0.0 0.00 0.03 0.03 60 1008.8
20260508000457 14 98 0.0 0.0 0.00 0.03 0.03 59 1009.0
20260507235954 14 102 1.6 3.2 0.00 0.03 0.03 58 1008.9
20260507235451 14 102 1.6 1.6 0.00 0.03 0.03 57 1008.8
20260507234949 14 111 1.6 3.2 0.00 0.03 0.03 59 1008.7
20260507234445 14 86 1.6 1.6 0.00 0.03 0.03 60 1008.8